Previsão horária em 1-e Maya

Hoje, 10 Abril, Sábado

Tempo Temperatura Precipitação Vento Pressão Humidade
00:00 +1°C° 0 mm 1 m/s 759 mmHg 79%
01:00 +1°C° 0 mm 1 m/s 759 mmHg 79%
02:00 +1°C° 0 mm 1 m/s 759 mmHg 79%
03:00 +2°C° 0 mm 1 m/s 759 mmHg 75%
04:00 +2°C° 0 mm 1 m/s 759 mmHg 75%
05:00 +2°C° 0 mm 1 m/s 760 mmHg 75%
06:00 +2°C° 0 mm 1 m/s 760 mmHg 75%
07:00 +4°C° 0 mm 1 m/s 760 mmHg 68%
08:00 +5°C° 0 mm 1 m/s 760 mmHg 60%
09:00 +6°C° 0 mm 2 m/s 760 mmHg 53%
10:00 +7°C° 0 mm 2 m/s 760 mmHg 49%
11:00 +8°C° 0 mm 2 m/s 759 mmHg 44%
12:00 +9°C° 0 mm 2 m/s 759 mmHg 40%
13:00 +11°C° 0 mm 1 m/s 759 mmHg 39%
14:00 +11°C° 0 mm 1 m/s 759 mmHg 37%
15:00 +11°C° 0 mm 1 m/s 758 mmHg 36%
16:00 +11°C° 0 mm 1 m/s 758 mmHg 40%
17:00 +10°C° 0 mm 1 m/s 758 mmHg 44%
18:00 +10°C° 0 mm 1 m/s 758 mmHg 49%
19:00 +8°C° 0 mm 1 m/s 758 mmHg 53%
20:00 +7°C° 0 mm 1 m/s 758 mmHg 57%
21:00 +4°C° 0 mm 0 m/s 758 mmHg 61%
22:00 +4°C° 0 mm 0 m/s 759 mmHg 63%
23:00 +4°C° 0 mm 1 m/s 759 mmHg 65%

Amanhã, 11 Abril, Domingo

Tempo Temperatura Precipitação Vento Pressão Humidade
00:00 +4°C° 0 mm 1 m/s 759 mmHg 67%
01:00 +4°C° 0 mm 1 m/s 759 mmHg 68%
02:00 +3°C° 0 mm 1 m/s 759 mmHg 69%
03:00 +3°C° 0 mm 1 m/s 759 mmHg 69%
04:00 +3°C° 0 mm 1 m/s 759 mmHg 69%
05:00 +3°C° 0 mm 1 m/s 760 mmHg 69%
06:00 +2°C° 0 mm 1 m/s 760 mmHg 69%
07:00 +5°C° 0 mm 1 m/s 760 mmHg 63%
08:00 +7°C° 0 mm 1 m/s 761 mmHg 56%
09:00 +8°C° 0 mm 0 m/s 761 mmHg 50%
10:00 +9°C° 0 mm 0 m/s 761 mmHg 46%
11:00 +11°C° 0 mm 0 m/s 761 mmHg 42%
12:00 +12°C° 0 mm 0 m/s 761 mmHg 39%
13:00 +13°C° 0 mm 0 m/s 761 mmHg 38%
14:00 +14°C° 0 mm 1 m/s 761 mmHg 37%
15:00 +14°C° 0 mm 1 m/s 762 mmHg 36%
16:00 +14°C° 0 mm 1 m/s 762 mmHg 41%
17:00 +13°C° 0 mm 1 m/s 762 mmHg 46%
18:00 +12°C° 0 mm 1 m/s 762 mmHg 51%
19:00 +11°C° 0 mm 1 m/s 762 mmHg 56%
20:00 +8°C° 0 mm 2 m/s 762 mmHg 61%
21:00 +7°C° 0 mm 2 m/s 763 mmHg 67%
22:00 +7°C° 0 mm 2 m/s 763 mmHg 69%
23:00 +6°C° 0 mm 2 m/s 763 mmHg 71%

Depois de amanhã, 12 Abril, Segunda-feira

Tempo Temperatura Precipitação Vento Pressão Humidade
00:00 +5°C° 0 mm 2 m/s 763 mmHg 72%
01:00 +5°C° 0 mm 2 m/s 763 mmHg 72%
02:00 +5°C° 0 mm 2 m/s 763 mmHg 72%
03:00 +4°C° 0 mm 2 m/s 763 mmHg 71%
04:00 +3°C° 0 mm 3 m/s 763 mmHg 70%
05:00 +3°C° 0 mm 3 m/s 763 mmHg 68%
06:00 +3°C° 0 mm 3 m/s 762 mmHg 66%
07:00 +4°C° 0 mm 3 m/s 762 mmHg 70%
08:00 +5°C° 0 mm 4 m/s 762 mmHg 74%
09:00 +6°C° 0 mm 4 m/s 762 mmHg 78%
10:00 +7°C° 0 mm 4 m/s 762 mmHg 76%
11:00 +10°C° 0 mm 4 m/s 761 mmHg 74%
12:00 +12°C° 0 mm 4 m/s 761 mmHg 71%
13:00 +12°C° 0 mm 4 m/s 761 mmHg 69%
14:00 +13°C° 0 mm 4 m/s 761 mmHg 68%
15:00 +14°C° 0 mm 4 m/s 760 mmHg 66%
16:00 +14°C° 0 mm 4 m/s 760 mmHg 68%
17:00 +13°C° 0 mm 4 m/s 760 mmHg 71%
18:00 +13°C° 0 mm 3 m/s 760 mmHg 74%
19:00 +12°C° 0 mm 3 m/s 760 mmHg 79%
20:00 +11°C° 0 mm 3 m/s 760 mmHg 84%
21:00 +10°C° 0 mm 3 m/s 759 mmHg 90%
22:00 +10°C° 0 mm 3 m/s 759 mmHg 89%
23:00 +10°C° 0 mm 3 m/s 759 mmHg 88%

13 Abril, Terça-feira

Tempo Temperatura Precipitação Vento Pressão Humidade
00:00 +10°C° 0 mm 3 m/s 759 mmHg 88%
01:00 +9°C° 0 mm 3 m/s 759 mmHg 88%
02:00 +8°C° 0 mm 2 m/s 759 mmHg 88%
03:00 +8°C° 0 mm 2 m/s 759 mmHg 88%
04:00 +8°C° 0 mm 2 m/s 759 mmHg 87%
05:00 +7°C° 0 mm 2 m/s 759 mmHg 86%
06:00 +7°C° 0 mm 2 m/s 759 mmHg 85%
07:00 +9°C° 0 mm 3 m/s 759 mmHg 75%
08:00 +11°C° 0 mm 3 m/s 758 mmHg 64%
09:00 +13°C° 0 mm 4 m/s 758 mmHg 54%
10:00 +15°C° 0 mm 4 m/s 758 mmHg 48%
11:00 +17°C° 0 mm 4 m/s 758 mmHg 43%
12:00 +19°C° 0 mm 4 m/s 758 mmHg 38%
13:00 +19°C° 0 mm 4 m/s 758 mmHg 36%
14:00 +20°C° 0 mm 4 m/s 757 mmHg 35%
15:00 +20°C° 0 mm 4 m/s 757 mmHg 33%
16:00 +19°C° 0 mm 3 m/s 757 mmHg 38%
17:00 +18°C° 0 mm 3 m/s 757 mmHg 44%
18:00 +17°C° 0 mm 2 m/s 757 mmHg 49%
19:00 +16°C° 0 mm 2 m/s 757 mmHg 53%
20:00 +14°C° 0 mm 2 m/s 757 mmHg 57%
21:00 +13°C° 0 mm 2 m/s 757 mmHg 61%
22:00 +12°C° 0 mm 2 m/s 757 mmHg 63%
23:00 +12°C° 0 mm 2 m/s 757 mmHg 66%

14 Abril, Quarta-feira

Tempo Temperatura Precipitação Vento Pressão Humidade
00:00 +10°C° 0 mm 2 m/s 756 mmHg 69%
01:00 +10°C° 0 mm 2 m/s 756 mmHg 70%
02:00 +10°C° 0 mm 2 m/s 756 mmHg 72%
03:00 +9°C° 0 mm 2 m/s 756 mmHg 73%
04:00 +9°C° 0 mm 2 m/s 756 mmHg 74%
05:00 +9°C° 0 mm 2 m/s 756 mmHg 75%
06:00 +8°C° 0 mm 2 m/s 756 mmHg 76%
07:00 +10°C° 0 mm 3 m/s 756 mmHg 68%
08:00 +12°C° 0 mm 3 m/s 756 mmHg 60%
09:00 +14°C° 0 mm 4 m/s 756 mmHg 52%
10:00 +15°C° 0 mm 4 m/s 755 mmHg 45%
11:00 +18°C° 0 mm 4 m/s 755 mmHg 39%
12:00 +20°C° 0 mm 5 m/s 755 mmHg 32%
13:00 +20°C° 0 mm 5 m/s 754 mmHg 30%
14:00 +21°C° 0 mm 5 m/s 754 mmHg 28%
15:00 +21°C° 0 mm 5 m/s 754 mmHg 26%
16:00 +20°C° 0 mm 4 m/s 754 mmHg 31%
17:00 +19°C° 0 mm 3 m/s 753 mmHg 36%
18:00 +18°C° 0 mm 3 m/s 753 mmHg 40%
19:00 +16°C° 0 mm 2 m/s 753 mmHg 46%
20:00 +15°C° 0 mm 2 m/s 753 mmHg 51%
21:00 +13°C° 0 mm 2 m/s 753 mmHg 57%
22:00 +12°C° 0 mm 2 m/s 753 mmHg 59%
23:00 +12°C° 0 mm 2 m/s 753 mmHg 62%

15 Abril, Quinta-feira

Tempo Temperatura Precipitação Vento Pressão Humidade
00:00 +10°C° 0 mm 2 m/s 753 mmHg 64%
01:00 +10°C° 0 mm 2 m/s 753 mmHg 66%
02:00 +9°C° 0 mm 2 m/s 753 mmHg 67%
03:00 +9°C° 0 mm 2 m/s 753 mmHg 69%
04:00 +9°C° 0 mm 2 m/s 753 mmHg 69%
05:00 +8°C° 0 mm 2 m/s 752 mmHg 70%
06:00 +8°C° 0 mm 2 m/s 752 mmHg 70%
07:00 +10°C° 0 mm 2 m/s 752 mmHg 64%
08:00 +12°C° 0 mm 2 m/s 752 mmHg 58%
09:00 +14°C° 0 mm 2 m/s 752 mmHg 53%
10:00 +15°C° 0 mm 2 m/s 752 mmHg 48%
11:00 +17°C° 0 mm 2 m/s 751 mmHg 44%
12:00 +18°C° 0 mm 2 m/s 751 mmHg 39%
13:00 +18°C° 0 mm 2 m/s 751 mmHg 40%
14:00 +18°C° 0 mm 2 m/s 750 mmHg 41%
15:00 +18°C° 0 mm 2 m/s 750 mmHg 42%
16:00 +18°C° 0 mm 2 m/s 749 mmHg 44%
17:00 +17°C° 0 mm 2 m/s 749 mmHg 47%
18:00 +16°C° 0 mm 1 m/s 749 mmHg 49%
19:00 +15°C° 0 mm 2 m/s 748 mmHg 53%
20:00 +14°C° 0 mm 2 m/s 748 mmHg 56%
21:00 +12°C° 0 mm 2 m/s 748 mmHg 60%
22:00 +10°C° 0 mm 2 m/s 747 mmHg 63%
23:00 +10°C° 0 mm 2 m/s 747 mmHg 67%
Mostrar mais